Time,TemperatureF,DewpointF,PressureIn,WindDirection,WindDirectionDegrees,WindSpeedMPH,WindSpeedGustMPH,Humidity,HourlyPrecipIn,Conditions,Clouds,dailyrainin,SoftwareType,DateUTC
2013-03-07 00:02:00,14.5,4.2,29.64,South,180,0.0,-999.0,63,-99.99,,,0.00,Acu-Link.com,2013-03-07 06:02:00,
2013-03-07 00:17:00,15.3,3.9,29.64,SSW,202,0.0,-999.0,60,-99.99,,,0.00,Acu-Link.com,2013-03-07 06:17:00,
2013-03-07 00:32:00,13.8,1.4,29.65,SW,225,0.0,-999.0,57,-99.99,,,0.00,Acu-Link.com,2013-03-07 06:32:00,
2013-03-07 00:47:00,14.0,1.6,29.65,SSW,202,0.0,-999.0,57,-99.99,,,0.00,Acu-Link.com,2013-03-07 06:47:00,
2013-03-07 01:03:00,13.8,1.4,29.64,SSW,202,0.0,-999.0,57,-99.99,,,0.00,Acu-Link.com,2013-03-07 07:03:00,
2013-03-07 01:18:00,12.7,0.0,29.65,SSW,202,0.0,-999.0,56,-99.99,,,0.00,Acu-Link.com,2013-03-07 07:18:00,
2013-03-07 01:33:00,12.6,1.0,29.65,West,270,0.0,-999.0,59,-99.99,,,0.00,Acu-Link.com,2013-03-07 07:33:00,
2013-03-07 01:48:00,12.6,2.1,29.66,SSW,202,0.0,-999.0,62,-99.99,,,0.00,Acu-Link.com,2013-03-07 07:48:00,
2013-03-07 02:03:00,12.7,2.9,29.65,SSE,157,0.0,-999.0,64,-99.99,,,0.00,Acu-Link.com,2013-03-07 08:03:00,
2013-03-07 02:18:00,14.0,3.8,29.65,South,180,0.0,-999.0,63,-99.99,,,0.00,Acu-Link.com,2013-03-07 08:18:00,
2013-03-07 02:33:00,13.8,2.9,29.64,SE,135,0.0,-999.0,61,-99.99,,,0.00,Acu-Link.com,2013-03-07 08:33:00,
2013-03-07 02:48:00,14.0,2.7,29.63,NE,45,0.0,-999.0,60,-99.99,,,0.00,Acu-Link.com,2013-03-07 08:48:00,
2013-03-07 03:03:00,14.0,2.0,29.62,SSW,202,0.0,-999.0,58,-99.99,,,0.00,Acu-Link.com,2013-03-07 09:03:00,
2013-03-07 03:19:00,13.8,1.8,29.63,ESE,112,0.0,-999.0,58,-99.99,,,0.00,Acu-Link.com,2013-03-07 09:19:00,
2013-03-07 03:34:00,13.8,1.8,29.62,SSE,157,0.0,-999.0,58,-99.99,,,0.00,Acu-Link.com,2013-03-07 09:34:00,
2013-03-07 03:49:00,13.5,1.1,29.62,South,180,0.0,-999.0,57,-99.99,,,0.00,Acu-Link.com,2013-03-07 09:49:00,
2013-03-07 04:04:00,13.1,1.5,29.62,North,0,0.0,-999.0,59,-99.99,,,0.00,Acu-Link.com,2013-03-07 10:04:00,
2013-03-07 04:19:00,12.7,1.5,29.63,ESE,112,0.0,-999.0,60,-99.99,,,0.00,Acu-Link.com,2013-03-07 10:19:00,
2013-03-07 04:34:00,13.1,1.9,29.63,SSW,202,0.0,-999.0,60,-99.99,,,0.00,Acu-Link.com,2013-03-07 10:34:00,
2013-03-07 04:50:00,12.6,1.0,29.63,SSE,157,0.0,-999.0,59,-99.99,,,0.00,Acu-Link.com,2013-03-07 10:50:00,
2013-03-07 05:05:00,13.1,1.9,29.62,South,180,0.0,-999.0,60,-99.99,,,0.00,Acu-Link.com,2013-03-07 11:05:00,
2013-03-07 05:20:00,12.4,0.5,29.63,SSW,202,0.0,-999.0,58,-99.99,,,0.00,Acu-Link.com,2013-03-07 11:20:00,
2013-03-07 05:35:00,12.2,0.3,29.63,SSE,157,0.0,-999.0,58,-99.99,,,0.00,Acu-Link.com,2013-03-07 11:35:00,
2013-03-07 05:50:00,11.5,0.7,29.64,SSW,202,0.0,-999.0,61,-99.99,,,0.00,Acu-Link.com,2013-03-07 11:50:00,
2013-03-07 06:05:00,12.4,1.9,29.63,SE,135,0.0,-999.0,62,-99.99,,,0.00,Acu-Link.com,2013-03-07 12:05:00,
2013-03-07 06:20:00,12.0,0.8,29.64,SSE,157,0.0,-999.0,60,-99.99,,,0.00,Acu-Link.com,2013-03-07 12:20:00,
2013-03-07 06:35:00,12.0,0.8,29.64,SSE,157,0.0,-999.0,60,-99.99,,,0.00,Acu-Link.com,2013-03-07 12:35:00,
2013-03-07 06:50:00,11.3,-0.2,29.64,SSW,202,0.0,-999.0,59,-99.99,,,0.00,Acu-Link.com,2013-03-07 12:50:00,
2013-03-07 07:06:00,11.8,1.3,29.65,South,180,0.0,-999.0,62,-99.99,,,0.00,Acu-Link.com,2013-03-07 13:06:00,
2013-03-07 07:21:00,13.1,2.9,29.65,NNE,22,0.0,-999.0,63,-99.99,,,0.00,Acu-Link.com,2013-03-07 13:21:00,
2013-03-07 07:36:00,14.2,3.6,29.67,WSW,247,0.0,-999.0,62,-99.99,,,0.00,Acu-Link.com,2013-03-07 13:36:00,
2013-03-07 07:51:00,15.8,3.7,29.66,WSW,247,0.0,-999.0,58,-99.99,,,0.00,Acu-Link.com,2013-03-07 13:51:00,
2013-03-07 08:06:00,17.8,3.6,29.67,West,270,0.0,-999.0,53,-99.99,,,0.00,Acu-Link.com,2013-03-07 14:06:00,
2013-03-07 08:21:00,19.6,4.4,29.67,NE,45,0.0,-999.0,51,-99.99,,,0.00,Acu-Link.com,2013-03-07 14:21:00,
2013-03-07 08:51:00,22.5,13.6,29.66,SSW,202,0.0,-999.0,68,-99.99,,,0.00,Acu-Link.com,2013-03-07 14:51:00,
2013-03-07 09:06:00,23.0,16.3,29.66,South,180,0.0,-999.0,75,-99.99,,,0.00,Acu-Link.com,2013-03-07 15:06:00,
2013-03-07 09:37:00,25.0,18.8,29.66,South,180,0.0,-999.0,77,-99.99,,,0.00,Acu-Link.com,2013-03-07 15:37:00,
2013-03-07 09:52:00,27.1,20.9,29.66,ESE,112,0.0,-999.0,77,-99.99,,,0.00,Acu-Link.com,2013-03-07 15:52:00,
2013-03-07 10:07:00,28.4,21.5,29.65,SSW,202,0.0,-999.0,75,-99.99,,,0.00,Acu-Link.com,2013-03-07 16:07:00,
2013-03-07 10:22:00,29.7,22.8,29.65,SE,135,0.0,-999.0,75,-99.99,,,0.00,Acu-Link.com,2013-03-07 16:22:00,
2013-03-07 10:37:00,30.0,21.8,29.65,South,180,0.0,-999.0,71,-99.99,,,0.00,Acu-Link.com,2013-03-07 16:37:00,
2013-03-07 10:52:00,32.2,24.2,29.63,ENE,67,0.0,-999.0,72,-99.99,,,0.00,Acu-Link.com,2013-03-07 16:52:00,
2013-03-07 11:07:00,31.8,22.8,29.63,SW,225,0.0,-999.0,69,-99.99,,,0.00,Acu-Link.com,2013-03-07 17:07:00,
2013-03-07 11:22:00,32.0,23.3,29.63,South,180,0.0,-999.0,70,-99.99,,,0.00,Acu-Link.com,2013-03-07 17:22:00,
2013-03-07 11:37:00,32.7,23.7,29.62,SSW,202,0.0,-999.0,69,-99.99,,,0.00,Acu-Link.com,2013-03-07 17:37:00,
2013-03-07 11:53:00,34.2,25.1,29.61,SE,135,0.0,-999.0,69,-99.99,,,0.00,Acu-Link.com,2013-03-07 17:53:00,
2013-03-07 12:08:00,34.9,25.1,29.61,SE,135,0.0,-999.0,67,-99.99,,,0.00,Acu-Link.com,2013-03-07 18:08:00,
2013-03-07 12:23:00,35.8,25.6,29.60,South,180,0.0,-999.0,66,-99.99,,,0.00,Acu-Link.com,2013-03-07 18:23:00,
2013-03-07 12:38:00,35.8,24.8,29.60,SSE,157,0.0,-999.0,64,-99.99,,,0.00,Acu-Link.com,2013-03-07 18:38:00,
2013-03-07 12:53:00,35.8,25.2,29.60,South,180,0.0,-999.0,65,-99.99,,,0.00,Acu-Link.com,2013-03-07 18:53:00,
2013-03-07 13:08:00,38.1,27.4,29.58,West,270,0.0,-999.0,65,-99.99,,,0.00,Acu-Link.com,2013-03-07 19:08:00,
2013-03-07 13:23:00,36.3,25.3,29.57,South,180,0.0,-999.0,64,-99.99,,,0.00,Acu-Link.com,2013-03-07 19:23:00,
2013-03-07 13:38:00,36.7,26.1,29.57,SSE,157,0.0,-999.0,65,-99.99,,,0.00,Acu-Link.com,2013-03-07 19:38:00,
2013-03-07 13:53:00,37.6,26.9,29.56,ENE,67,0.0,-999.0,65,-99.99,,,0.00,Acu-Link.com,2013-03-07 19:53:00,
2013-03-07 14:09:00,37.9,27.2,29.56,East,90,0.0,-999.0,65,-99.99,,,0.00,Acu-Link.com,2013-03-07 20:09:00,
2013-03-07 14:24:00,38.3,27.2,29.56,ESE,112,0.0,-999.0,64,-99.99,,,0.00,Acu-Link.com,2013-03-07 20:24:00,
2013-03-07 14:39:00,38.5,27.0,29.56,SW,225,0.0,-999.0,63,-99.99,,,0.00,Acu-Link.com,2013-03-07 20:39:00,
2013-03-07 14:54:00,38.7,26.8,29.56,ESE,112,0.0,-999.0,62,-99.99,,,0.00,Acu-Link.com,2013-03-07 20:54:00,
2013-03-07 15:09:00,38.5,26.6,29.55,WNW,292,0.0,-999.0,62,-99.99,,,0.00,Acu-Link.com,2013-03-07 21:09:00,
2013-03-07 15:24:00,39.4,28.3,29.55,SW,225,0.0,-999.0,64,-99.99,,,0.00,Acu-Link.com,2013-03-07 21:24:00,
2013-03-07 15:39:00,37.9,26.4,29.55,SSE,157,0.0,-999.0,63,-99.99,,,0.00,Acu-Link.com,2013-03-07 21:39:00,
2013-03-07 15:54:00,37.2,26.9,29.55,West,270,0.0,-999.0,66,-99.99,,,0.00,Acu-Link.com,2013-03-07 21:54:00,
2013-03-07 16:09:00,37.0,26.7,29.55,SSE,157,0.0,-999.0,66,-99.99,,,0.00,Acu-Link.com,2013-03-07 22:09:00,
2013-03-07 16:25:00,38.1,26.6,29.54,East,90,0.0,-999.0,63,-99.99,,,0.00,Acu-Link.com,2013-03-07 22:25:00,
2013-03-07 16:40:00,37.2,26.5,29.54,WSW,247,0.0,-999.0,65,-99.99,,,0.00,Acu-Link.com,2013-03-07 22:40:00,
2013-03-07 16:55:00,36.3,26.4,29.54,North,0,0.0,-999.0,67,-99.99,,,0.00,Acu-Link.com,2013-03-07 22:55:00,
2013-03-07 17:10:00,35.2,25.4,29.55,NE,45,0.0,-999.0,67,-99.99,,,0.00,Acu-Link.com,2013-03-07 23:10:00,
2013-03-07 17:25:00,33.6,24.9,29.56,NNE,22,0.0,-999.0,70,-99.99,,,0.00,Acu-Link.com,2013-03-07 23:25:00,
2013-03-07 17:40:00,33.3,25.3,29.56,ESE,112,0.0,-999.0,72,-99.99,,,0.00,Acu-Link.com,2013-03-07 23:40:00,
2013-03-07 17:55:00,32.2,24.5,29.57,NE,45,0.0,-999.0,73,-99.99,,,0.00,Acu-Link.com,2013-03-07 23:55:00,
2013-03-07 18:10:00,31.1,24.1,29.57,ENE,67,0.0,-999.0,75,-99.99,,,0.00,Acu-Link.com,2013-03-08 00:10:00,
2013-03-07 18:25:00,29.8,24.1,29.56,South,180,0.0,-999.0,79,-99.99,,,0.00,Acu-Link.com,2013-03-08 00:25:00,
2013-03-07 18:40:00,29.1,23.7,29.56,ENE,67,0.0,-999.0,80,-99.99,,,0.00,Acu-Link.com,2013-03-08 00:40:00,
2013-03-07 18:56:00,28.8,23.4,29.57,SW,225,0.0,-999.0,80,-99.99,,,0.00,Acu-Link.com,2013-03-08 00:56:00,
2013-03-07 19:11:00,28.2,22.8,29.56,North,0,0.0,-999.0,80,-99.99,,,0.00,Acu-Link.com,2013-03-08 01:11:00,
2013-03-07 19:26:00,28.0,22.6,29.55,SSE,157,0.0,-999.0,80,-99.99,,,0.00,Acu-Link.com,2013-03-08 01:26:00,
2013-03-07 19:41:00,27.9,22.2,29.56,South,180,0.0,-999.0,79,-99.99,,,0.00,Acu-Link.com,2013-03-08 01:41:00,
2013-03-07 19:56:00,27.5,21.9,29.56,NW,315,0.0,-999.0,79,-99.99,,,0.00,Acu-Link.com,2013-03-08 01:56:00,
2013-03-07 20:11:00,27.1,21.2,29.56,South,180,0.0,-999.0,78,-99.99,,,0.00,Acu-Link.com,2013-03-08 02:11:00,
2013-03-07 20:26:00,27.0,21.1,29.58,ENE,67,0.0,-999.0,78,-99.99,,,0.00,Acu-Link.com,2013-03-08 02:26:00,
2013-03-07 20:41:00,26.8,20.6,29.58,SW,225,0.0,-999.0,77,-99.99,,,0.00,Acu-Link.com,2013-03-08 02:41:00,
2013-03-07 20:56:00,26.4,20.2,29.58,SSW,202,0.0,-999.0,77,-99.99,,,0.00,Acu-Link.com,2013-03-08 02:56:00,
2013-03-07 21:12:00,26.4,20.2,29.58,ENE,67,0.0,-999.0,77,-99.99,,,0.00,Acu-Link.com,2013-03-08 03:12:00,
2013-03-07 21:27:00,26.4,20.2,29.59,ESE,112,0.0,-999.0,77,-99.99,,,0.00,Acu-Link.com,2013-03-08 03:27:00,
2013-03-07 21:42:00,26.2,20.0,29.59,ESE,112,0.0,-999.0,77,-99.99,,,0.00,Acu-Link.com,2013-03-08 03:42:00,
2013-03-07 21:57:00,26.1,19.9,29.59,SSE,157,0.0,-999.0,77,-99.99,,,0.00,Acu-Link.com,2013-03-08 03:57:00,
2013-03-07 22:12:00,25.7,19.2,29.60,WNW,292,0.0,-999.0,76,-99.99,,,0.00,Acu-Link.com,2013-03-08 04:12:00,
2013-03-07 22:27:00,25.3,18.8,29.59,ESE,112,0.0,-999.0,76,-99.99,,,0.00,Acu-Link.com,2013-03-08 04:27:00,
2013-03-07 22:42:00,24.8,17.7,29.58,NNW,337,0.0,-999.0,74,-99.99,,,0.00,Acu-Link.com,2013-03-08 04:42:00,
2013-03-07 22:57:00,24.6,16.6,29.58,SSW,202,0.0,-999.0,71,-99.99,,,0.00,Acu-Link.com,2013-03-08 04:57:00,
2013-03-07 23:12:00,24.4,16.0,29.58,SSW,202,0.0,-999.0,70,-99.99,,,0.00,Acu-Link.com,2013-03-08 05:12:00,
2013-03-07 23:28:00,24.4,15.4,29.58,ESE,112,0.0,-999.0,68,-99.99,,,0.00,Acu-Link.com,2013-03-08 05:28:00,
2013-03-07 23:43:00,24.8,16.1,29.58,SSE,157,0.0,-999.0,69,-99.99,,,0.00,Acu-Link.com,2013-03-08 05:43:00,
2013-03-07 23:58:00,24.8,16.8,29.58,North,0,0.0,-999.0,71,-99.99,,,0.00,Acu-Link.com,2013-03-08 05:58:00,